Hourly Weather Bolshie Galashki

Today, 15 June, Tuesday

Time Temperature Precipitation Wind Pressure Humidity
00:00 +17°C° 0.1 mm 2 mps 727 mmHg 77%
01:00 +16°C° 0.1 mm 2 mps 727 mmHg 81%
02:00 +16°C° 0.2 mm 2 mps 727 mmHg 85%
03:00 +16°C° 0.2 mm 2 mps 727 mmHg 88%
04:00 +16°C° 0 mm 1 mps 727 mmHg 92%
05:00 +16°C° 0.6 mm 2 mps 727 mmHg 92%
06:00 +17°C° 0.6 mm 3 mps 727 mmHg 93%
07:00 +17°C° 0.6 mm 4 mps 727 mmHg 94%
08:00 +18°C° 0.9 mm 4 mps 727 mmHg 89%
09:00 +19°C° 0.9 mm 4 mps 727 mmHg 85%
10:00 +20°C° 0 mm 4 mps 727 mmHg 80%
11:00 +21°C° 0.2 mm 4 mps 727 mmHg 74%
12:00 +23°C° 0.2 mm 4 mps 727 mmHg 67%
13:00 +25°C° 0.2 mm 4 mps 727 mmHg 61%
14:00 +26°C° 0 mm 4 mps 727 mmHg 54%
15:00 +27°C° 0 mm 4 mps 727 mmHg 48%
16:00 +28°C° 0 mm 5 mps 726 mmHg 41%
17:00 +25°C° 0.1 mm 4 mps 727 mmHg 53%
18:00 +22°C° 0.1 mm 4 mps 727 mmHg 64%
19:00 +20°C° 0.1 mm 3 mps 727 mmHg 76%
20:00 +19°C° 0 mm 3 mps 727 mmHg 81%
21:00 +18°C° 0 mm 2 mps 727 mmHg 87%
22:00 +17°C° 0 mm 2 mps 727 mmHg 92%
23:00 +18°C° 0 mm 1 mps 727 mmHg 94%

Tomorrow, 16 June, Wednesday

Time Temperature Precipitation Wind Pressure Humidity
00:00 +16°C° 0 mm 1 mps 727 mmHg 95%
01:00 +15°C° 0 mm 1 mps 727 mmHg 97%
02:00 +15°C° 0 mm 1 mps 727 mmHg 96%
03:00 +15°C° 0 mm 1 mps 727 mmHg 96%
04:00 +15°C° 0 mm 1 mps 727 mmHg 96%
05:00 +18°C° 0 mm 1 mps 727 mmHg 89%
06:00 +20°C° 0 mm 1 mps 727 mmHg 82%
07:00 +22°C° 0 mm 1 mps 727 mmHg 75%
08:00 +23°C° 0 mm 2 mps 727 mmHg 65%
09:00 +25°C° 0 mm 2 mps 727 mmHg 55%
10:00 +27°C° 0 mm 2 mps 727 mmHg 45%
11:00 +28°C° 0 mm 2 mps 727 mmHg 41%
12:00 +29°C° 0 mm 2 mps 726 mmHg 37%
13:00 +30°C° 0 mm 2 mps 726 mmHg 32%
14:00 +30°C° 0 mm 3 mps 726 mmHg 31%
15:00 +30°C° 0 mm 3 mps 725 mmHg 31%
16:00 +30°C° 0 mm 3 mps 725 mmHg 30%
17:00 +29°C° 0 mm 3 mps 724 mmHg 39%
18:00 +27°C° 0 mm 2 mps 724 mmHg 48%
19:00 +25°C° 0 mm 2 mps 723 mmHg 57%
20:00 +23°C° 0 mm 2 mps 723 mmHg 61%
21:00 +21°C° 0 mm 3 mps 723 mmHg 65%
22:00 +19°C° 0 mm 3 mps 723 mmHg 68%
23:00 +18°C° 0.2 mm 3 mps 722 mmHg 74%

Day after tomorrow, 17 June, Thursday

Time Temperature Precipitation Wind Pressure Humidity
00:00 +17°C° 0.2 mm 3 mps 722 mmHg 79%
01:00 +16°C° 0.2 mm 3 mps 721 mmHg 85%
02:00 +15°C° 0.5 mm 4 mps 721 mmHg 88%
03:00 +15°C° 0.5 mm 5 mps 721 mmHg 91%
04:00 +15°C° 0.5 mm 6 mps 721 mmHg 93%
05:00 +15°C° 0.2 mm 6 mps 720 mmHg 93%
06:00 +16°C° 0.2 mm 5 mps 720 mmHg 93%
07:00 +17°C° 0.2 mm 4 mps 720 mmHg 92%
08:00 +18°C° 0.1 mm 4 mps 720 mmHg 89%
09:00 +18°C° 0.1 mm 4 mps 720 mmHg 86%
10:00 +18°C° 0.1 mm 4 mps 721 mmHg 83%
11:00 +19°C° 0 mm 4 mps 721 mmHg 70%
12:00 +21°C° 0 mm 4 mps 721 mmHg 57%
13:00 +22°C° 0 mm 4 mps 722 mmHg 44%
14:00 +22°C° 0 mm 5 mps 722 mmHg 44%
15:00 +21°C° 0 mm 5 mps 722 mmHg 43%
16:00 +21°C° 0 mm 6 mps 722 mmHg 43%
17:00 +20°C° 0 mm 5 mps 723 mmHg 46%
18:00 +19°C° 0 mm 4 mps 723 mmHg 48%
19:00 +17°C° 0 mm 4 mps 723 mmHg 51%
20:00 +16°C° 0 mm 3 mps 724 mmHg 54%
21:00 +13°C° 0 mm 3 mps 724 mmHg 56%
22:00 +12°C° 0 mm 3 mps 725 mmHg 59%
23:00 +11°C° 0 mm 3 mps 725 mmHg 64%

18 June, Friday

Time Temperature Precipitation Wind Pressure Humidity
00:00 +9°C° 0 mm 2 mps 725 mmHg 70%
01:00 +7°C° 0 mm 2 mps 726 mmHg 76%
02:00 +7°C° 0 mm 2 mps 726 mmHg 76%
03:00 +7°C° 0 mm 2 mps 727 mmHg 77%
04:00 +6°C° 0 mm 2 mps 727 mmHg 77%
05:00 +8°C° 0 mm 2 mps 728 mmHg 66%
06:00 +10°C° 0 mm 3 mps 728 mmHg 55%
07:00 +12°C° 0 mm 3 mps 729 mmHg 44%
08:00 +13°C° 0 mm 3 mps 729 mmHg 40%
09:00 +14°C° 0 mm 3 mps 729 mmHg 36%
10:00 +17°C° 0 mm 3 mps 729 mmHg 32%
11:00 +17°C° 0 mm 3 mps 729 mmHg 30%
12:00 +18°C° 0 mm 3 mps 729 mmHg 28%
13:00 +19°C° 0 mm 3 mps 730 mmHg 26%
14:00 +19°C° 0 mm 3 mps 730 mmHg 26%
15:00 +19°C° 0 mm 4 mps 729 mmHg 26%
16:00 +20°C° 0 mm 4 mps 729 mmHg 26%
17:00 +19°C° 0 mm 4 mps 730 mmHg 30%
18:00 +18°C° 0 mm 4 mps 730 mmHg 35%
19:00 +17°C° 0 mm 3 mps 730 mmHg 39%
20:00 +14°C° 0 mm 3 mps 730 mmHg 45%
21:00 +14°C° 0 mm 2 mps 730 mmHg 52%
22:00 +12°C° 0 mm 2 mps 730 mmHg 58%
23:00 +12°C° 0 mm 2 mps 730 mmHg 60%

19 June, Saturday

Time Temperature Precipitation Wind Pressure Humidity
00:00 +10°C° 0 mm 2 mps 730 mmHg 61%
01:00 +10°C° 0 mm 2 mps 730 mmHg 63%
02:00 +10°C° 0 mm 2 mps 730 mmHg 63%
03:00 +12°C° 0 mm 2 mps 730 mmHg 63%
04:00 +12°C° 0 mm 2 mps 730 mmHg 62%
05:00 +12°C° 0 mm 2 mps 730 mmHg 66%
06:00 +12°C° 0 mm 3 mps 730 mmHg 69%
07:00 +12°C° 0 mm 3 mps 730 mmHg 72%
08:00 +15°C° 0 mm 4 mps 729 mmHg 63%
09:00 +17°C° 0 mm 5 mps 729 mmHg 53%
10:00 +21°C° 0 mm 6 mps 728 mmHg 44%
11:00 +22°C° 0 mm 6 mps 728 mmHg 44%
12:00 +22°C° 0 mm 6 mps 727 mmHg 45%
13:00 +23°C° 0 mm 6 mps 727 mmHg 46%
14:00 +22°C° 0.2 mm 6 mps 726 mmHg 51%
15:00 +22°C° 0.2 mm 6 mps 726 mmHg 56%
16:00 +21°C° 0.2 mm 6 mps 725 mmHg 61%
17:00 +21°C° 0 mm 6 mps 725 mmHg 63%
18:00 +21°C° 0 mm 6 mps 725 mmHg 65%
19:00 +21°C° 0 mm 6 mps 724 mmHg 66%
20:00 +20°C° 0.2 mm 5 mps 724 mmHg 72%
21:00 +20°C° 0.2 mm 5 mps 724 mmHg 78%
22:00 +19°C° 0.2 mm 4 mps 723 mmHg 84%
23:00 +18°C° 0.2 mm 4 mps 723 mmHg 86%

20 June, Sunday

Time Temperature Precipitation Wind Pressure Humidity
00:00 +18°C° 0.2 mm 4 mps 723 mmHg 89%
01:00 +16°C° 0.2 mm 5 mps 724 mmHg 92%
02:00 +15°C° 0.1 mm 5 mps 724 mmHg 90%
03:00 +14°C° 0.1 mm 5 mps 724 mmHg 89%
04:00 +14°C° 0.1 mm 5 mps 724 mmHg 87%
05:00 +13°C° 0 mm 5 mps 725 mmHg 76%
06:00 +13°C° 0 mm 6 mps 726 mmHg 64%
07:00 +11°C° 0 mm 6 mps 726 mmHg 53%
08:00 +14°C° 0 mm 6 mps 727 mmHg 45%
09:00 +15°C° 0 mm 6 mps 727 mmHg 38%
10:00 +16°C° 0 mm 7 mps 727 mmHg 30%
11:00 +17°C° 0 mm 7 mps 727 mmHg 29%
12:00 +17°C° 0 mm 7 mps 727 mmHg 28%
13:00 +18°C° 0 mm 8 mps 727 mmHg 27%
14:00 +18°C° 0 mm 7 mps 728 mmHg 29%
15:00 +18°C° 0 mm 7 mps 728 mmHg 30%
16:00 +18°C° 0 mm 7 mps 728 mmHg 31%
17:00 +19°C° 0 mm 6 mps 728 mmHg 34%
18:00 +17°C° 0 mm 5 mps 728 mmHg 38%
19:00 +16°C° 0 mm 5 mps 729 mmHg 41%
20:00 +14°C° 0 mm 4 mps 729 mmHg 48%
21:00 +12°C° 0 mm 3 mps 728 mmHg 54%
22:00 +10°C° 0 mm 2 mps 728 mmHg 61%
23:00 +9°C° 0 mm 2 mps 728 mmHg 64%
Show more